Regional Weather Roundup
Issued by NWS Wakefield, VA

Home | Current Version | Previous Version | Text Only | Print | Product List | Glossary Off
Versions: 1 2 3 4 5 6 7 8 9 10 11 12 13 14 15 16 17 18 19 20 21 22 23 24 25 26 27 28 29 30 31 32 33 34 35 36 37 38 39 40 41 42 43 44 45 46 47 48 49 50

000
ASUS41 KAKQ 200910
RWRAKQ

REGIONAL WEATHER ROUNDUP
NATIONAL WEATHER SERVICE WAKEFIELD VA
400 AM EST SAT DEC 20 2014

Note: "fair" indicates few or no clouds below 12,000 feet with no
significant weather and/or obstructions to visibility. * = Denotes
station may not report precipitation (e.g., rain,snow,etc.),
thunder or fog.

VAZ042-051-052>054-056-201000-
NORTHERN VIRGINIA

CITY           SKY/WX    TMP DP  RH WIND       PRES   REMARKS
WASH NATIONAL  PTCLDY    32  20  61 CALM      30.28R
DULLES         PTCLDY    23  19  85 CALM      30.26S
FORT BELVOIR   CLEAR     22  20  91 CALM      30.28S
QUANTICO       CLEAR     25  21  85 NW6       30.30S
FREDERICKSBRG* CLEAR     26  23  87 CALM      30.27F
STAFFORD*      CLEAR     22  22 100 CALM      30.31F
WARRENTON      CLEAR     20  20 100 CALM      30.26S
CULPEPER*      CLEAR     21  19  93 CALM      30.26S
MANASSAS*      CLEAR     19  19 100 SE3       30.28R
LEESBURG*      CLEAR     27  23  86 CALM      30.27R
WINCHESTER     CLEAR     23  18  80 CALM      30.25R
FRONT ROYAL*   MOSUNNY   23  19  86 CALM      30.24F
LURAY*         MOSUNNY   21  21 100 S3        30.24F
$$

VAZ048-049-060>072-079>083-201000-
CENTRAL AND SOUTH CENTRAL VIRGINIA

CITY           SKY/WX    TMP DP  RH WIND       PRES   REMARKS
RICHMOND       PTCLDY    30  22  72 N3        30.26F
CHESTERFIELD*  PTSUNNY   27  12  54 CALM      30.27S
PETERSBURG*    MOCLDY    26  25  94 CALM      30.28S
HANOVER        PTCLDY    26  22  84 CALM      30.28F
TAPPAHANNOCK*  PTCLDY    27  22  81 CALM      30.27F
QUINTON*       MOSUNNY   27  23  82 CALM      30.26F
CHARLOTTSVILLE PTCLDY    27  21  78 SW3       30.23F
GORDONSVILLE*  MOSUNNY   22  20  93 CALM      30.25F
ORANGE*        CLEAR     23  21  93 CALM      30.26F
LOUISA*        PTCLDY    25  21  86 CALM      30.24F
BUMPASS*       MOSUNNY   29  22  73 CALM      30.25F
FARMVILLE*     MOCLDY    27  23  85 CALM      30.24F
CREWE*         CLOUDY    27  24  89 CALM      30.25F
FORT PICKETT*  CLOUDY    30  24  77 NE3       30.25F
CHASE CITY*    CLOUDY    33  27  78 CALM      30.24F
CLARKSVILLE*   CLOUDY    34  27  75 E5        30.23F
SOUTH HILL*    CLOUDY    30  24  78 CALM      30.31F
LAWRENCEVILLE* CLOUDY    31  25  77 CALM      30.25F
EMPORIA*       CLOUDY    30  27  86 CALM      30.28F
$$

VAZ088>098-201000-
SOUTHEAST VIRGINIA

CITY           SKY/WX    TMP DP  RH WIND       PRES   REMARKS
NORFOLK        CLOUDY    38  29  70 N6        30.25S
VIRGINIA BEACH MOCLDY    32  27  81 CALM      30.25S
NORFOLK NAVAL  MOCLDY    39  28  64 NW7       30.27S
WEST POINT*    MOCLDY    26  22  87 CALM      30.28F
SALUDA*        FAIR      32  25  76 NW5       30.26S
NEWPORT NEWS   MOCLDY    35  25  66 N3        30.26F
LANGLEY AFB    CLOUDY    33  26  73 NW6       30.27S
FORT EUSTIS    CLOUDY    34  24  68 N3        30.25F
WILLIAMSBURG*  MOCLDY    32  28  86 CALM      30.27S
HR EXEC AP*    CLOUDY    27  25  93 CALM      30.28S
FRANKLIN*      CLOUDY    28  27  93 CALM      30.27S
WAKEFIELD      CLOUDY    30  25  81 CALM      30.27R
$$

VAZ020-022-025-037-045-201000-
WEST CENTRAL AND SOUTHWEST VIRGINIA

CITY           SKY/WX    TMP DP  RH WIND       PRES   REMARKS
STAUNTON*      PTCLDY    21  18  87 CALM      30.23F
WAYNESBORO*    MOSUNNY   21  19  91 CALM      30.20F
HOT SPRINGS VA MOCLDY    24  17  76 SW5       30.05S
LYNCHBURG      CLOUDY    27  23  85 CALM      30.24S
DANVILLE       CLOUDY    34  25  69 NE7       30.24F
SOUTH BOSTON*  CLOUDY    31  25  78 CALM      30.25S
MARTINSVILLE   CLOUDY    33  26  73 NE3       30.25R
ROANOKE        PTCLDY    29  22  75 CALM      30.24R
BLACKSBURG     PTCLDY    27  22  80 CALM      30.20R
DUBLIN*        PTCLDY    29  27  91 CALM      30.18R
MARION*        MOCLDY    31  25  78 E5        30.15F
HILLSVILLE*    MOCLDY    32  23  71 CALM      30.14R
RICHLANDS*     CLOUDY    28  23  79 N5        30.11F
WISE*          CLOUDY    30  27  86 CALM      30.13R
ABINGDON*      CLOUDY    35  28  75 CALM      30.13R
$$

MDZ021>025-VAZ099-100-201000-
SOUTHERN MARYLAND AND THE DELMARVA PENINSULA

CITY           SKY/WX    TMP DP  RH WIND       PRES   REMARKS
PATUXENT RIVER CLEAR     31  22  69 NW7       30.26S
BAY BRIDGE APT   N/A     32  23  69 NW7       30.25F
LEONARDTOWN    CLEAR     27  21  80 W3        30.27F
DOVER          CLOUDY    28  23  81 W6        30.22R
GEORGETOWN     CLEAR     28  21  75 CALM      30.24S
EASTON         CLEAR     29  26  89 NW3       30.28F
CAMBRIDGE      CLEAR     32  27  80 NW3       30.25S
SALISBURY      CLEAR     27  21  78 CALM      30.25S
OCEAN CITY     CLEAR     27  23  85 NW5       30.25R
WALLOPS ISLAND CLEAR     28  24  85 N6        30.25S
ACCOMACK*      PTCLDY    28  25  86 N5        30.24F
$$

NCZ012>017-030>032-201000-
NORTH CENTRAL AND EASTERN NORTH CAROLINA

CITY           SKY/WX    TMP DP  RH WIND       PRES   REMARKS
ROANOKE RAPIDS CLOUDY    32  27  80 NE3       30.26F
RALEIGH        CLOUDY    36  27  69 E5        30.22F
ELIZABETH CITY CLOUDY    36  29  75 W3        30.26R
AHOSKIE*       CLOUDY    31  27  83 CALM      30.27S
EDENTON*         N/A     33  30  89 CALM      30.25F
CURRITUCK*     CLOUDY    33  29  84 CALM      30.25S
KILL DEVIL HLS CLOUDY    40  32  72 N5        30.22S
MANTEO         CLOUDY    40  32  74 N5        30.24S
CAPE HATTERAS  MOCLDY    41  34  76 NE5       30.23S
TARBORO*       CLOUDY    34  30  86 N5        30.26F
GOLDSBORO      CLOUDY    37  37  97 NE7       30.20F
WASHINGTON     CLOUDY    33  31  93 NE5       30.25F
GREENVILLE     CLOUDY    34  32  93 N3        30.26S
NEW BERN       CLOUDY    41  34  76 NE5       30.24S
WILMINGTON     CLOUDY    43  37  79 NE6       30.20S
$$

VAZ048-201000-
ELSEWHERE

CITY           SKY/WX    TMP DP  RH WIND       PRES   REMARKS
HARRISBURG PA  CLOUDY    31  20  63 NW12      30.24S WCI  22
BALTIMORE      PTCLDY    27  19  72 W5        30.25S
ANNAPOLIS      CLEAR     32  22  66 NW6       30.25F
ANDREWS AFB    CLEAR     29  20  69 NW6       30.25S
PHILADELPHIA   CLOUDY    34  22  61 N6        30.24R
HENDERSON NC   CLOUDY    32  25  74 NE7       30.23F
GREENSBORO     CLOUDY    38  25  59 NE3       30.19S
ROCKY MOUNT    CLOUDY    35  29  78 NE7       30.24F
$$

VAZ100-201000-
MARINE

STATION/POSITION TIME  TEMP    WIND        PRES    WAVE   SWELL
                       AIR SEA DIR/SP/G            HT/PER HT/PER
                 (UTC) (F)     (DEG/KT/KT) (MB)    (FT/S) (FT/S)
CAPE MAY NJ      0900   29 42  100/  1/  1 1023.5F
LEWES DE         0900   33 42  310/ 11/ 12 1023.6F
15NM E FENWICK I 0900   36 46              1023.5R   3/ 5
OCEAN-CITY-INLET 0900   31 44  320/  5/  6 1023.7F
WACHAPREAGUE VA  0900   29 41  310/  2/  3 1024.2F
THOMAS POINT MD  0900   32 41  320/  8/  8 1025.7F
GOOSES REEF MD   0900   35     VRB 14/ 17  1023.8R
COVE POINT MD    0900   33     340/ 10/ 14 1024.5F
SOLOMONS ISLAND  0900      43                N/A
BISHOPS HEAD MD  0900   30 36  330/  6/  6 1024.0F
POTOMAC MD       0900   34     350/  8/ 10 1024.0R
CAMBRIDGE MD     0900   34 40  320/ 10/ 12 1024.2F
LEWISETTA VA     0900   35 43  360/  8/ 12 1024.5F
RAPPAHANNOCK LGT 0900          360/ 15/ 16 1024.5F
STINGRAY PT      0900   36     350/ 12/ 14 1024.8F
YORK RVR RNG VA  0900   36     360/ 14/ 16 1023.7S
YORKTOWN VA      0900   34 45  320/  6/  7 1024.4S
JAMESTOWN VA     0900   32     360/  4/  6   N/A
DOMINION TERM VA 0900   35     360/  7/ 10 1024.6R
KIPTOPEKE VA     0900      49   40/  4/  6   N/A
CHES BAY BRIDGE  0900   39 45   10/ 10/ 14 1023.6S
CAPE HENRY VA    0900   38      10/ 13/ 15 1022.8R
CHESAPEAKE LGHT  0800   39     360/ 12/ 14 1024.6R
WILLOUBY STN VA  0900   36     340/  8/ 10 1024.8R
S CRANEY ISL VA  0900          350/  5/  7 1024.6R
CAPE HENRY BUOY  0900      49                N/A     3/ 5
1ST LANDING BUOY 0900   39      20/ 12/ 14 1023.7R
CAPE CHARLES BUO 0900      47                N/A     2/ 4   2/10
64NM E OF VA BCH 0900   43 55  350/ 10/ 14 1022.8R   3/ 6   2/ 6
DUCK PIER NC     0900   42 46   20/ 10/ 13 1022.8F
44100 DUCK FRF   0900      52                N/A     3/ 6
44056 DUCK FRF   0900      47                N/A     3/ 6
OREGON INLET NC  0900   41 50  330/  5/  8 1023.8R
HATTERAS NC      0900   44 52   30/  6/  9 1024.1R
DIAMOND SHLS NC  0900   46                 1023.5R   3/ 6
CAPE LOOKOUT NC  0800   45      10/  9/ 11 1023.3R
$$



USA.gov is the U.S. government's official web portal to all federal, state and local government web resources and services.